Change the Weather History Date:

Saturday, December 7, 2013

  Actual Average Record
Temperature  
Mean Temperature 24 °F -  
Max Temperature 30 °F 45 °F 55 °F (2014)
Min Temperature 17 °F 36 °F 17 °F (2013)
Degree Days  
Heating Degree Days 42    
Moisture  
Dew Point 6 °F    
Average Humidity 48    
Maximum Humidity 65    
Minimum Humidity 31    
Precipitation  
Precipitation 0.00 in - - ()
Sea Level Pressure  
Sea Level Pressure 30.39 in    
Wind  
Wind Speed 6 mph (NE)    
Max Wind Speed 10 mph    
Max Gust Speed -    
Visibility 10 miles    
Events      
Averages and records for this station are not official NWS values.
T = Trace of Precipitation, MM = Missing Value Source: NWS Daily Summary

Daily Weather History Graph

Daily Weather History Graph

Search for Another Location

Airport or City:

Trip Planner

Search our weather history database for the weather conditions in past years. The results will help you decide how hot, cold, wet, or windy it might be!

Date:

Astronomy

Dec. 07, 2013 Rise Set
Actual Time 7:48 AM PST 4:16 PM PST
Civil Twilight 7:11 AM PST 4:52 PM PST
Nautical Twilight 6:32 AM PST 5:32 PM PST
Astronomical Twilight 5:54 AM PST 6:10 PM PST
Moon 11:19 AM PST (12/7) 10:23 PM PST (12/7)
Length of Visible Light 9h 40m
Length of Day
8h 28m
Waxing Crescent, 30% of the Moon is Illuminated
Dec 7
Waxing Crescent
Dec 9
First Quarter
Dec 17
Full
Dec 25
Last Quarter
Jan 1
New

Hourly Weather History & Observations

Time (PST) Temp. Windchill Dew Point Humidity Pressure Visibility Wind Dir Wind Speed Gust Speed Precip Events Conditions
12:56 AM 21.9 °F 13.4 °F 7.0 °F 53% 30.31 in 10.0 mi North 6.9 mph - N/A   Partly Cloudy
1:56 AM 21.0 °F 12.4 °F 6.1 °F 53% 30.32 in 10.0 mi North 6.9 mph - N/A   Partly Cloudy
2:56 AM 23.0 °F 17.0 °F 5.0 °F 46% 30.33 in 10.0 mi North 4.6 mph - N/A   Partly Cloudy
3:56 AM 21.9 °F 11.7 °F 5.0 °F 48% 30.34 in 10.0 mi North 9.2 mph - N/A   Partly Cloudy
4:56 AM 21.9 °F 11.0 °F 3.9 °F 46% 30.35 in 10.0 mi NNE 10.4 mph - N/A   Partly Cloudy
5:56 AM 23.0 °F 13.1 °F 3.0 °F 42% 30.35 in 10.0 mi NNE 9.2 mph - N/A   Partly Cloudy
6:56 AM 21.0 °F 12.4 °F 3.0 °F 46% 30.36 in 10.0 mi NE 6.9 mph - N/A   Partly Cloudy
7:56 AM 21.9 °F 17.2 °F 3.9 °F 46% 30.38 in 10.0 mi ESE 3.5 mph - N/A   Clear
8:56 AM 23.0 °F - 6.1 °F 48% 30.40 in 10.0 mi Calm Calm - N/A   Partly Cloudy
9:56 AM 28.0 °F 22.8 °F 1.0 °F 31% 30.42 in 10.0 mi North 4.6 mph - N/A   Partly Cloudy
10:56 AM 28.9 °F - 7.0 °F 40% 30.42 in 10.0 mi Calm Calm - N/A   Partly Cloudy
11:56 AM 30.0 °F 25.2 °F 7.0 °F 38% 30.40 in 10.0 mi NW 4.6 mph - N/A   Clear
12:56 PM 30.9 °F - 5.0 °F 33% 30.39 in 10.0 mi Calm Calm - N/A   Clear
1:56 PM 30.9 °F - 7.0 °F 37% 30.39 in 10.0 mi Calm Calm - N/A   Clear
2:56 PM 30.9 °F - 7.0 °F 37% 30.41 in 10.0 mi Calm Calm - N/A   Clear
3:56 PM 28.9 °F 22.8 °F 6.1 °F 38% 30.42 in 10.0 mi NNW 5.8 mph - N/A   Clear
4:56 PM 26.1 °F 19.4 °F 7.0 °F 44% 30.43 in 10.0 mi NE 5.8 mph - N/A   Clear
5:56 PM 21.9 °F - 8.1 °F 55% 30.43 in 10.0 mi Calm Calm - N/A   Clear
6:56 PM 21.9 °F 14.5 °F 7.0 °F 53% 30.43 in 10.0 mi NNE 5.8 mph - N/A   Clear
7:56 PM 19.0 °F 11.1 °F 7.0 °F 59% 30.43 in 10.0 mi ESE 5.8 mph - N/A   Clear
8:56 PM 19.0 °F 13.9 °F 8.1 °F 62% 30.44 in 10.0 mi ENE 3.5 mph - N/A   Clear
9:56 PM 17.1 °F 6.6 °F 7.0 °F 65% 30.43 in 10.0 mi ESE 8.1 mph - N/A   Clear
10:56 PM 19.0 °F 10.0 °F 9.0 °F 65% 30.45 in 10.0 mi ESE 6.9 mph - N/A   Clear
11:56 PM 19.9 °F 8.6 °F 10.0 °F 65% 30.45 in 10.0 mi ESE 10.4 mph - N/A   Clear